Weather History for KLAM - February, 2013

Change the Weather History Date:

Sunday, February 17, 2013

  Actual Average Record
Temperature  
Mean Temperature 42 °F -  
Max Temperature 53 °F 43 °F 60 °F (1970)
Min Temperature 30 °F 23 °F 9 °F (1966)
Degree Days  
Heating Degree Days 24    
Moisture  
Dew Point 3 °F    
Average Humidity 22    
Maximum Humidity 40    
Minimum Humidity 8    
Precipitation  
Precipitation 0.00 in - - ()
Sea Level Pressure  
Sea Level Pressure 29.95 in    
Wind  
Wind Speed 4 mph (SW)    
Max Wind Speed 22 mph    
Max Gust Speed 34 mph    
Visibility 10 miles    
Events      
Averages and records for this station are not official NWS values.
T = Trace of Precipitation, MM = Missing Value Source: NWS Daily Summary

Daily Weather History Graph

Daily Weather History Graph

Search for Another Location

Airport or City:

Trip Planner

Search our weather history database for the weather conditions in past years. The results will help you decide how hot, cold, wet, or windy it might be!

Date:

Astronomy

Feb. 17, 2013 Rise Set
Actual Time 6:49 AM MST 5:49 PM MST
Civil Twilight 6:23 AM MST 6:15 PM MST
Nautical Twilight 5:53 AM MST 6:45 PM MST
Astronomical Twilight 5:23 AM MST 7:14 PM MST
Moon 10:59 AM MST (2/17) 12:32 AM MST (2/17)
Length of Visible Light 11h 51m
Length of Day
10h 59m
Waxing Crescent, 49% of the Moon is Illuminated
Feb 17
Waxing Crescent
Feb 17
First Quarter
Feb 25
Full
Mar 4
Last Quarter
Mar 11
New

Hourly Weather History & Observations

Time (MST) Temp. Windchill Dew Point Humidity Pressure Visibility Wind Dir Wind Speed Gust Speed Precip Events Conditions
12:15 AM 38.3 °F - 5.0 °F 25% 30.17 in 10.0 mi Calm Calm - N/A   Clear
12:35 AM 38.3 °F - 4.8 °F 25% 30.16 in 10.0 mi Calm Calm - N/A   Clear
12:55 AM 37.8 °F - 4.8 °F 25% 30.16 in 10.0 mi Calm Calm - N/A   Clear
1:15 AM 38.3 °F - 5.0 °F 25% 30.16 in 10.0 mi Calm Calm - N/A   Clear
1:35 AM 37.4 °F - 5.4 °F 26% 30.16 in 10.0 mi Calm Calm - N/A   Clear
1:55 AM 37.2 °F - 5.0 °F 26% 30.15 in 10.0 mi Calm Calm - N/A   Clear
2:15 AM 36.1 °F - 5.0 °F 27% 30.15 in 10.0 mi Calm Calm - N/A   Clear
2:35 AM 34.3 °F - 4.1 °F 28% 30.15 in 10.0 mi Calm Calm - N/A   Clear
2:55 AM 34.7 °F - 6.8 °F 31% 30.14 in 10.0 mi Calm Calm - N/A   Clear
3:15 AM 35.1 °F - 5.0 °F 28% 30.13 in 10.0 mi Calm Calm - N/A   Clear
3:35 AM 34.7 °F 31.8 °F 4.8 °F 29% 30.12 in 10.0 mi NW 3.5 mph - N/A   Clear
3:55 AM 33.8 °F - 4.8 °F 30% 30.11 in 10.0 mi Calm Calm - N/A   Clear
4:15 AM 31.8 °F 27.3 °F 7.0 °F 35% 30.10 in 10.0 mi ENE 4.6 mph - N/A   Clear
4:35 AM 31.1 °F - 7.7 °F 37% 30.10 in 10.0 mi Calm Calm - N/A   Clear
4:55 AM 30.9 °F - 8.8 °F 40% 30.10 in 10.0 mi Calm Calm - N/A   Clear
5:15 AM 31.3 °F - 8.2 °F 38% 30.10 in 10.0 mi Calm Calm - N/A   Clear
5:35 AM 32.0 °F - 7.5 °F 36% 30.09 in 10.0 mi Calm Calm - N/A   Clear
5:55 AM 33.1 °F - 6.3 °F 32% 30.08 in 10.0 mi Calm Calm - N/A   Clear
6:15 AM 34.0 °F - 6.8 °F 32% 30.08 in 10.0 mi Calm Calm - N/A   Clear
6:35 AM 34.7 °F - 5.9 °F 30% 30.08 in 10.0 mi Calm Calm - N/A   Clear
6:55 AM 34.5 °F - 6.1 °F 30% 30.07 in 10.0 mi Calm Calm - N/A   Clear
7:15 AM 34.0 °F - 5.9 °F 31% 30.07 in 10.0 mi Calm Calm - N/A   Clear
7:35 AM 33.8 °F - 4.5 °F 29% 30.07 in 10.0 mi Calm Calm - N/A   Clear
7:55 AM 34.2 °F 31.2 °F 6.1 °F 31% 30.07 in 10.0 mi WSW 3.5 mph - N/A   Clear
8:15 AM 34.5 °F - 3.9 °F 28% 30.07 in 10.0 mi Calm Calm - N/A   Clear
8:35 AM 36.1 °F - 5.4 °F 28% 30.06 in 10.0 mi Calm Calm - N/A   Clear
8:55 AM 36.5 °F - 5.7 °F 28% 30.05 in 10.0 mi Calm Calm - N/A   Clear
9:15 AM 36.3 °F - 6.4 °F 29% 30.05 in 10.0 mi Calm Calm - N/A   Clear
9:35 AM 35.1 °F - 9.0 °F 34% 30.04 in 10.0 mi Calm Calm - N/A   Clear
9:55 AM 38.7 °F - 9.1 °F 30% 30.03 in 10.0 mi Calm Calm - N/A   Clear
10:15 AM 40.5 °F 38.4 °F 8.1 °F 26% 30.02 in 10.0 mi SE 3.5 mph - N/A   Clear
10:35 AM 41.4 °F 38.4 °F 10.4 °F 28% 30.01 in 10.0 mi East 4.6 mph - N/A   Clear
10:55 AM 42.4 °F 38.8 °F 8.6 °F 25% 29.99 in 10.0 mi East 5.8 mph - N/A   Clear
11:15 AM 41.9 °F 38.2 °F 9.0 °F 26% 29.98 in 10.0 mi ENE 5.8 mph - N/A   Clear
11:55 AM 43.3 °F 39.9 °F 6.4 °F 22% 29.95 in 10.0 mi ESE 5.8 mph - N/A   Clear
12:15 PM 46.2 °F 42.7 °F 7.3 °F 20% 29.93 in 10.0 mi SSE 6.9 mph - N/A   Clear
12:35 PM 47.8 °F - 3.4 °F 16% 29.91 in 10.0 mi SE 10.4 mph 16.1 mph N/A   Clear
12:55 PM 48.6 °F - 3.2 °F 16% 29.89 in 10.0 mi ESE 4.6 mph - N/A   Clear
1:15 PM 50.2 °F - 1.9 °F 14% 29.88 in 10.0 mi South 9.2 mph 17.3 mph N/A   Clear
1:35 PM 50.0 °F - 1.9 °F 14% 29.86 in 10.0 mi South 15.0 mph 20.7 mph N/A   Clear
1:55 PM 50.7 °F - 0.9 °F 13% 29.85 in 10.0 mi South 16.1 mph 20.7 mph N/A   Clear
2:15 PM 50.4 °F - -0.9 °F 12% 29.83 in 10.0 mi SSE 15.0 mph 25.3 mph N/A   Clear
2:35 PM 51.3 °F - -2.9 °F 11% 29.82 in 10.0 mi SSE 9.2 mph 17.3 mph N/A   Clear
2:55 PM 51.8 °F - -4.2 °F 10% 29.82 in 10.0 mi South 10.4 mph 16.1 mph N/A   Clear
3:15 PM 52.7 °F - -8.0 °F 8% 29.81 in 10.0 mi SW 10.4 mph 25.3 mph N/A   Clear
3:35 PM 53.4 °F - -6.0 °F 9% 29.80 in 10.0 mi WSW 8.1 mph - N/A   Clear
3:55 PM 53.1 °F - -6.2 °F 9% 29.80 in 10.0 mi SSW 13.8 mph 19.6 mph N/A   Clear
4:15 PM 52.7 °F - -5.3 °F 9% 29.80 in 10.0 mi SW 12.7 mph 23.0 mph N/A   Clear
4:35 PM 52.0 °F - -5.1 °F 9% 29.79 in 10.0 mi SW 12.7 mph 23.0 mph N/A   Clear
4:55 PM 51.4 °F - -4.5 °F 10% 29.78 in 10.0 mi SW 12.7 mph 19.6 mph N/A   Clear
5:15 PM 50.5 °F - -4.0 °F 10% 29.78 in 10.0 mi SW 11.5 mph - N/A   Clear
5:35 PM 50.0 °F - -3.5 °F 11% 29.77 in 10.0 mi SSW 8.1 mph - N/A   Clear
5:55 PM 49.1 °F - -3.1 °F 11% 29.77 in 10.0 mi SW 10.4 mph 16.1 mph N/A   Clear
6:15 PM 48.2 °F - -2.6 °F 12% 29.78 in 10.0 mi SW 9.2 mph - N/A   Clear
6:35 PM 47.1 °F - -2.2 °F 13% 29.78 in 10.0 mi SW 6.9 mph - N/A   Clear
6:55 PM 47.1 °F - -0.6 °F 14% 29.79 in 10.0 mi SW 13.8 mph 17.3 mph N/A   Clear
7:15 PM 46.6 °F - 0.3 °F 15% 29.79 in 10.0 mi WSW 11.5 mph 18.4 mph N/A   Clear
7:35 PM 46.4 °F 40.1 °F -0.2 °F 14% 29.78 in 10.0 mi WSW 15.0 mph 23.0 mph N/A   Clear
7:55 PM 45.9 °F 39.7 °F -0.4 °F 15% 29.78 in 10.0 mi WSW 13.8 mph 18.4 mph N/A   Clear
8:15 PM 45.9 °F 39.7 °F 0.3 °F 15% 29.78 in 10.0 mi WSW 13.8 mph 21.9 mph N/A   Clear
8:35 PM 45.7 °F 39.8 °F 0.9 °F 16% 29.77 in 10.0 mi SW 12.7 mph 20.7 mph N/A   Clear
8:55 PM 45.0 °F 40.1 °F 1.9 °F 17% 29.77 in 10.0 mi SW 9.2 mph 20.7 mph N/A   Clear
9:15 PM 45.0 °F 40.1 °F 2.8 °F 18% 29.78 in 10.0 mi WSW 9.2 mph 18.4 mph N/A   Clear
9:35 PM 44.2 °F 39.2 °F 2.8 °F 18% 29.79 in 10.0 mi WSW 9.2 mph 20.7 mph N/A   Clear
9:55 PM 43.0 °F 35.4 °F 3.4 °F 19% 29.79 in 10.0 mi West 16.1 mph 20.7 mph N/A   Clear
10:15 PM 42.3 °F 35.5 °F 4.1 °F 21% 29.79 in 10.0 mi West 12.7 mph 20.7 mph N/A   Clear
10:35 PM 42.1 °F 36.1 °F 4.5 °F 21% 29.79 in 10.0 mi West 10.4 mph 23.0 mph N/A   Clear
10:55 PM 42.1 °F 35.7 °F 5.5 °F 22% 29.79 in 10.0 mi West 11.5 mph - N/A   Clear
11:15 PM 42.1 °F 32.8 °F 5.2 °F 22% 29.79 in 10.0 mi West 21.9 mph 34.5 mph N/A   Clear
11:55 PM 41.9 °F 33.4 °F 5.5 °F 22% 29.79 in 10.0 mi West 18.4 mph 29.9 mph N/A   Clear